Change the Weather History Date:

Sunday, April 13, 2014

  Actual Average Record
Temperature  
Mean Temperature 54 °F -  
Max Temperature 57 °F 61 °F 57 °F (2014)
Min Temperature 50 °F 45 °F 44 °F (2013)
Degree Days  
Heating Degree Days 12    
Growing Degree Days 4 (Base 50)    
Moisture  
Dew Point 49 °F    
Average Humidity 83    
Maximum Humidity 100    
Minimum Humidity 77    
Precipitation  
Precipitation 0.00 in - - ()
Sea Level Pressure  
Sea Level Pressure 30.03 in    
Wind  
Wind Speed 6 mph (WNW)    
Max Wind Speed 12 mph    
Max Gust Speed -    
Visibility 5 miles    
Events      
Averages and records for this station are not official NWS values.
T = Trace of Precipitation, MM = Missing Value Source: NWS Daily Summary

Daily Weather History Graph

Daily Weather History Graph

Search for Another Location

Airport or City:

Trip Planner

Search our weather history database for the weather conditions in past years. The results will help you decide how hot, cold, wet, or windy it might be!

Date:

Astronomy

Apr. 13, 2014 Rise Set
Actual Time 6:37 AM PDT 7:43 PM PDT
Civil Twilight 6:10 AM PDT 8:10 PM PDT
Nautical Twilight 5:38 AM PDT 8:42 PM PDT
Astronomical Twilight 5:05 AM PDT 9:16 PM PDT
Moon 6:28 PM PDT (4/13) 5:37 AM PDT (4/13)
Length of Visible Light 13h 59m
Length of Day
13h 05m
Waxing Gibbous, 97% of the Moon is Illuminated
Apr 13
Waxing Gibbous
Apr 15
Full
Apr 22
Last Quarter
Apr 28
New
May 6
First Quarter

Hourly Weather History & Observations

Time (PDT) Temp. Dew Point Humidity Pressure Visibility Wind Dir Wind Speed Gust Speed Precip Events Conditions
12:15 AM 53.6 °F 50.0 °F 88% 29.98 in 8.0 mi WNW 8.1 mph - N/A   Overcast
12:35 AM 53.6 °F 50.0 °F 88% 29.98 in 8.0 mi West 6.9 mph - N/A   Overcast
12:55 AM 53.6 °F 48.2 °F 82% 29.98 in 7.0 mi West 9.2 mph - N/A   Overcast
1:15 AM 53.6 °F 48.2 °F 82% 29.98 in 6.0 mi WNW 8.1 mph - N/A   Haze
1:35 AM 53.6 °F 46.4 °F 77% 29.98 in 7.0 mi West 8.1 mph - N/A   Overcast
1:55 AM 53.6 °F 46.4 °F 77% 29.98 in 7.0 mi WNW 6.9 mph - N/A   Overcast
2:15 AM 53.6 °F 46.4 °F 77% 29.98 in 6.0 mi West 4.6 mph - N/A   Haze
2:35 AM 53.6 °F 46.4 °F 77% 29.98 in 6.0 mi WNW 4.6 mph - N/A   Haze
2:55 AM 53.6 °F 46.4 °F 77% 29.98 in 7.0 mi Calm Calm - N/A   Overcast
3:15 AM 53.6 °F 46.4 °F 77% 29.98 in 7.0 mi West 5.8 mph - N/A   Overcast
3:35 AM 51.8 °F 46.4 °F 82% 29.98 in 6.0 mi West 5.8 mph - N/A   Haze
3:55 AM 51.8 °F 46.4 °F 82% 29.99 in 5.0 mi West 4.6 mph - N/A   Haze
4:15 AM 51.8 °F 46.4 °F 82% 29.99 in 6.0 mi WSW 3.5 mph - N/A   Haze
4:35 AM 51.8 °F 46.4 °F 82% 29.99 in 6.0 mi West 5.8 mph - N/A   Haze
4:55 AM 51.8 °F 46.4 °F 82% 29.99 in 7.0 mi WSW 4.6 mph - N/A   Overcast
5:15 AM 51.8 °F 46.4 °F 82% 29.99 in 6.0 mi WSW 5.8 mph - N/A   Haze
5:35 AM 51.8 °F 46.4 °F 82% 29.99 in 5.0 mi Calm Calm - N/A   Haze
5:55 AM 51.8 °F 46.4 °F 82% 29.99 in 5.0 mi Calm Calm - N/A   Haze
6:15 AM 51.8 °F 46.4 °F 82% 30.00 in 5.0 mi WSW 3.5 mph - N/A   Haze
6:35 AM 53.6 °F 48.2 °F 82% 30.00 in 5.0 mi West 4.6 mph - N/A   Haze
6:55 AM 51.8 °F 48.2 °F 88% 30.00 in 4.0 mi Calm Calm - N/A   Overcast
7:15 AM 53.6 °F 48.2 °F 82% 30.01 in 4.0 mi West 3.5 mph - N/A   Haze
7:35 AM 53.6 °F 48.2 °F 82% 30.02 in 4.0 mi Calm Calm - N/A   Haze
7:55 AM 53.6 °F 48.2 °F 82% 30.03 in 5.0 mi NW 3.5 mph - N/A   Haze
8:35 AM 53.6 °F 48.2 °F 82% 30.04 in 5.0 mi NW 4.6 mph - N/A   Haze
8:55 AM 53.6 °F 48.2 °F 82% 30.05 in 5.0 mi Calm Calm - N/A   Haze
9:15 AM 53.6 °F 48.2 °F 82% 30.04 in 5.0 mi WNW 3.5 mph - N/A   Haze
9:35 AM 53.6 °F 48.2 °F 82% 30.05 in 5.0 mi West 4.6 mph - N/A   Haze
9:55 AM 53.6 °F 48.2 °F 82% 30.05 in 5.0 mi WSW 4.6 mph - N/A   Haze
10:15 AM 53.6 °F 48.2 °F 82% 30.05 in 5.0 mi West 4.6 mph - N/A   Haze
10:35 AM 55.4 °F 48.2 °F 77% 30.06 in 5.0 mi West 4.6 mph - N/A   Haze
10:55 AM 55.4 °F 48.2 °F 77% 30.06 in 5.0 mi West 6.9 mph - N/A   Haze
11:15 AM - - N/A% - 5.0 mi North - - N/A   Haze
11:35 AM 55.4 °F 48.2 °F 77% 30.06 in 6.0 mi NW 8.1 mph - N/A   Haze
11:55 AM 55.4 °F 48.2 °F 77% 30.06 in 5.0 mi WNW 9.2 mph - N/A   Haze
12:15 PM 55.4 °F 50.0 °F 82% 30.06 in 5.0 mi NW 10.4 mph - N/A   Haze
12:35 PM 55.4 °F 50.0 °F 82% 30.06 in 5.0 mi WNW 10.4 mph - N/A   Haze
12:55 PM 55.4 °F 50.0 °F 82% 30.05 in 4.0 mi WNW 10.4 mph - N/A   Haze
1:15 PM 55.4 °F 50.0 °F 82% 30.05 in 4.0 mi WNW 10.4 mph - N/A   Haze
1:35 PM 57.2 °F 50.0 °F 77% 30.05 in 4.0 mi WNW 10.4 mph - N/A   Haze
1:55 PM 57.2 °F 50.0 °F 77% 30.04 in 4.0 mi NW 10.4 mph - N/A   Haze
2:15 PM 57.2 °F 50.0 °F 77% 30.04 in 4.0 mi WNW 11.5 mph - N/A   Haze
2:35 PM 57.2 °F 51.8 °F 82% 30.04 in 4.0 mi NNW 11.5 mph - N/A   Haze
2:55 PM 57.2 °F 50.0 °F 77% 30.04 in 5.0 mi NW 10.4 mph - N/A   Haze
3:15 PM 57.2 °F 50.0 °F 77% 30.04 in 5.0 mi WNW 10.4 mph - N/A   Haze
3:35 PM 57.2 °F 50.0 °F 77% 30.04 in 4.0 mi West 9.2 mph - N/A   Haze
3:55 PM 57.2 °F 50.0 °F 77% 30.03 in 4.0 mi WNW 9.2 mph - N/A   Haze
4:15 PM 55.4 °F 50.0 °F 82% 30.03 in 5.0 mi WNW 9.2 mph - N/A   Haze
4:35 PM 55.4 °F 50.0 °F 82% 30.03 in 5.0 mi WNW 8.1 mph - N/A   Haze
4:55 PM 55.4 °F 50.0 °F 82% 30.03 in 5.0 mi WNW 9.2 mph - N/A   Haze
5:15 PM - - N/A% - - North - - N/A   Unknown
5:35 PM 55.4 °F 50.0 °F 82% 30.03 in 5.0 mi NW 6.9 mph - N/A   Mist
5:55 PM 57.2 °F 50.0 °F 77% 30.03 in 5.0 mi West 9.2 mph - N/A   Haze
6:15 PM 55.4 °F 50.0 °F 82% 30.03 in 5.0 mi WNW 6.9 mph - N/A   Haze
6:35 PM 55.4 °F 50.0 °F 82% 30.03 in 5.0 mi NW 8.1 mph - N/A   Mostly Cloudy
6:55 PM 55.4 °F 50.0 °F 82% 30.03 in 5.0 mi NW 3.5 mph - N/A   Overcast
7:15 PM 53.6 °F 50.0 °F 88% 30.03 in 5.0 mi North 4.6 mph - N/A   Overcast
7:35 PM - - N/A% 30.04 in - NW 6.9 mph - N/A   Unknown
7:55 PM 53.6 °F 50.0 °F 88% 30.04 in 5.0 mi NW 6.9 mph - N/A   Overcast
8:15 PM 53.6 °F 50.0 °F 88% 30.05 in 7.0 mi NW 8.1 mph - N/A   Overcast
8:35 PM 53.6 °F 50.0 °F 88% 30.05 in 7.0 mi NW 4.6 mph - N/A   Overcast
8:55 PM 53.6 °F 50.0 °F 88% 30.06 in 5.0 mi Calm Calm - N/A   Mostly Cloudy
9:15 PM 51.8 °F 48.2 °F 88% 30.06 in 6.0 mi East 3.5 mph - N/A   Partly Cloudy
9:35 PM 50.0 °F 48.2 °F 94% 30.07 in 6.0 mi Calm Calm - N/A   Mostly Cloudy
9:55 PM 50.0 °F 48.2 °F 94% 30.08 in 5.0 mi Calm Calm - N/A   Overcast
10:15 PM 53.6 °F 50.0 °F 88% 30.08 in 5.0 mi NNW 9.2 mph - N/A   Overcast
10:35 PM 53.6 °F 50.0 °F 88% 30.08 in 4.0 mi NW 9.2 mph - N/A   Overcast
10:55 PM 51.8 °F 50.0 °F 94% 30.08 in 4.0 mi NW 10.4 mph - N/A   Overcast
11:15 PM 50.0 °F 50.0 °F 100% 30.08 in 5.0 mi NW 3.5 mph - N/A   Overcast
11:35 PM 51.8 °F 50.0 °F 94% 30.08 in 4.0 mi North 4.6 mph - N/A   Overcast
11:55 PM 50.0 °F 50.0 °F 100% 30.07 in 5.0 mi Calm Calm - N/A   Overcast